| time (UTC) | temp C | wind direction | speed KPH | gust KPH | rain 1hr cm | rain 24hr cm | rain mn cm | humidity % | barometer mb |
| 20260906194518 | 21 | 259 | 0.0 | 1.6 | 0.00 | 0.00 | 0.00 | 55 | 1012.4 |
| 20260906193014 | 20 | 257 | 0.0 | 1.6 | 0.00 | 0.00 | 0.00 | 57 | 1012.5 |
| 20260906191510 | 21 | 253 | 0.0 | 1.6 | 0.00 | 0.00 | 0.00 | 55 | 1012.6 |
| 20260906190005 | 21 | 253 | 0.0 | 1.6 | 0.00 | 0.00 | 0.00 | 56 | 1012.8 |
| 20260906184603 | 20 | 252 | 0.0 | 1.6 | 0.00 | 0.00 | 0.00 | 60 | 1012.9 |
| 20260906183114 | 19 | 240 | 0.0 | 1.6 | 0.00 | 0.00 | 0.00 | 62 | 1013.0 |
| 20260906181556 | 19 | 241 | 0.0 | 0.0 | 0.00 | 0.00 | 0.00 | 62 | 1013.2 |
| 20260906180111 | 18 | 241 | 0.0 | 0.0 | 0.00 | 0.00 | 0.00 | 63 | 1013.2 |
| 20260906174543 | 17 | 241 | 0.0 | 0.0 | 0.00 | 0.00 | 0.00 | 60 | 1013.3 |
| 20260906173040 | 16 | 241 | 0.0 | 0.0 | 0.00 | 0.00 | 0.00 | 44 | 1013.3 |
| 20260906171537 | 15 | 241 | 0.0 | 0.0 | 0.00 | 0.00 | 0.00 | 24 | 1013.5 |
| 20260906170036 | 14 | 240 | 0.0 | 0.0 | 0.00 | 0.00 | 0.00 | 6 | 1013.7 |
| 20260906164525 | 13 | 241 | 0.0 | 0.0 | 0.00 | 0.00 | 0.00 | 1 | 1013.8 |
| 20260906163021 | 13 | 241 | 0.0 | 0.0 | 0.00 | 0.00 | 0.00 | 1 | 1014.0 |
| 20260906161517 | 12 | 240 | 0.0 | 0.0 | 0.00 | 0.00 | 0.00 | 1 | 1014.0 |
| 20260906160020 | 12 | 241 | 0.0 | 0.0 | 0.00 | 0.00 | 0.00 | 1 | 1014.1 |
| 20260906154508 | 11 | 241 | 0.0 | 0.0 | 0.00 | 0.00 | 0.00 | 1 | 1014.2 |
| 20260906153005 | 11 | 241 | 0.0 | 0.0 | 0.00 | 0.00 | 0.00 | 1 | 1014.1 |
| 20260906151559 | -17 | 0.0 | 0.0 | 0.00 | 0.00 | 0.00 | 1014.0 | ||
| 20260906150057 | -17 | 0.0 | 0.0 | 0.00 | 0.00 | 0.00 | 1013.8 | ||
| 20260906144559 | -17 | 0.0 | 0.0 | 0.00 | 0.00 | 0.00 | 1013.6 | ||
| 20260906143045 | -17 | 0.0 | 0.0 | 0.00 | 0.00 | 0.00 | 1013.4 | ||
| 20260906141542 | -17 | 0.0 | 0.0 | 0.00 | 0.00 | 0.00 | 1013.4 | ||
| 20260906140042 | -17 | 0.0 | 0.0 | 0.00 | 0.00 | 0.00 | 1013.3 | ||
| 20260906134534 | -17 | 0.0 | 0.0 | 0.00 | 0.00 | 0.00 | 1013.3 | ||
| 20260906133028 | -17 | 0.0 | 0.0 | 0.00 | 0.00 | 0.00 | 1013.2 | ||
| 20260906131524 | -17 | 0.0 | 0.0 | 0.00 | 0.00 | 0.00 | 1013.1 | ||
| 20260906130025 | -17 | 0.0 | 0.0 | 0.00 | 0.00 | 0.00 | 1013.2 | ||
| 20260906124514 | -17 | 0.0 | 0.0 | 0.00 | 0.00 | 0.00 | 1013.1 | ||
| 20260906123017 | -17 | 0.0 | 0.0 | 0.00 | 0.00 | 0.00 | 1013.3 | ||
| 20260906121518 | -17 | 0.0 | 0.0 | 0.00 | 0.00 | 0.00 | 1013.4 | ||
| 20260906120001 | 10 | 218 | 0.0 | 0.0 | 0.00 | 0.00 | 0.00 | 1 | 1013.4 |
| 20260906114611 | 10 | 208 | 0.0 | 0.0 | 0.00 | 0.00 | 0.00 | 1 | 1013.4 |
| 20260906113057 | 10 | 208 | 0.0 | 0.0 | 0.00 | 0.00 | 0.00 | 2 | 1013.4 |
| 20260906111547 | 10 | 208 | 0.0 | 0.0 | 0.00 | 0.00 | 0.00 | 2 | 1013.3 |
| 20260906110045 | 10 | 208 | 0.0 | 0.0 | 0.00 | 0.00 | 0.00 | 1 | 1013.3 |
| 20260906104538 | 10 | 223 | 0.0 | 0.0 | 0.00 | 0.00 | 0.00 | 1 | 1013.4 |
| 20260906103034 | 10 | 223 | 0.0 | 0.0 | 0.00 | 0.00 | 0.00 | 1 | 1013.3 |
| 20260906101530 | 10 | 223 | 0.0 | 0.0 | 0.00 | 0.00 | 0.00 | 1 | 1013.3 |
| 20260906100026 | 10 | 223 | 0.0 | 0.0 | 0.00 | 0.00 | 0.00 | 1 | 1013.4 |
| 20260906094520 | 10 | 223 | 0.0 | 0.0 | 0.00 | 0.00 | 0.00 | 1 | 1013.4 |
| 20260906093017 | 10 | 223 | 0.0 | 0.0 | 0.00 | 0.00 | 0.00 | 1 | 1013.3 |
| 20260906091524 | 10 | 223 | 0.0 | 0.0 | 0.00 | 0.00 | 0.00 | 1 | 1013.4 |
| 20260906090008 | 10 | 223 | 0.0 | 0.0 | 0.00 | 0.00 | 0.00 | 1 | 1013.5 |
| 20260906084504 | 10 | 223 | 0.0 | 0.0 | 0.00 | 0.00 | 0.00 | 1 | 1013.6 |
| 20260906083100 | 10 | 223 | 0.0 | 0.0 | 0.00 | 0.00 | 0.00 | 1 | 1013.7 |
| 20260906081602 | 11 | 223 | 0.0 | 0.0 | 0.00 | 0.00 | 0.00 | 1 | 1013.8 |
| 20260906080052 | 11 | 223 | 0.0 | 0.0 | 0.00 | 0.00 | 0.00 | 1 | 1013.9 |
| 20260906074604 | 11 | 223 | 0.0 | 1.6 | 0.00 | 0.00 | 0.00 | 1 | 1013.7 |
| 20260906073042 | 11 | 221 | 0.0 | 1.6 | 0.00 | 0.00 | 0.00 | 1 | 1013.6 |
| 20260906071539 | 11 | 219 | 0.0 | 0.0 | 0.00 | 0.00 | 0.00 | 1 | 1013.7 |
| 20260906070033 | 11 | 219 | 0.0 | 0.0 | 0.00 | 0.00 | 0.00 | 1 | 1013.7 |
| 20260906064528 | 11 | 219 | 0.0 | 0.0 | 0.00 | 0.00 | 0.00 | 1 | 1013.7 |
| 20260906063025 | 11 | 219 | 0.0 | 0.0 | 0.00 | 0.00 | 0.00 | 1 | 1013.7 |
| 20260906061521 | 11 | 219 | 0.0 | 0.0 | 0.00 | 0.00 | 0.00 | 1 | 1013.7 |
| 20260906060024 | 11 | 219 | 0.0 | 0.0 | 0.00 | 0.00 | 0.00 | 1 | 1013.8 |
| 20260906054502 | 11 | 219 | 0.0 | 0.0 | 0.00 | 0.00 | 0.00 | 1 | 1013.8 |
| 20260906053100 | 12 | 219 | 0.0 | 0.0 | 0.00 | 0.00 | 0.00 | 1 | 1013.8 |
| 20260906051602 | 12 | 219 | 0.0 | 0.0 | 0.00 | 0.00 | 0.00 | 6 | 1014.0 |
| 20260906050054 | 12 | 219 | 0.0 | 0.0 | 0.00 | 0.00 | 0.00 | 12 | 1013.7 |
| 20260906044546 | 12 | 219 | 0.0 | 0.0 | 0.00 | 0.00 | 0.00 | 8 | 1013.8 |
| 20260906043043 | 12 | 219 | 0.0 | 0.0 | 0.00 | 0.00 | 0.00 | 9 | 1013.7 |
| 20260906041543 | 13 | 84 | 0.0 | 0.0 | 0.00 | 0.00 | 0.00 | 12 | 1013.9 |
| 20260906040034 | 13 | 84 | 0.0 | 0.0 | 0.00 | 0.00 | 0.00 | 11 | 1014.1 |
| 20260906034530 | 13 | 84 | 0.0 | 0.0 | 0.00 | 0.00 | 0.00 | 8 | 1014.3 |
| 20260906033037 | 13 | 84 | 0.0 | 0.0 | 0.00 | 0.00 | 0.00 | 15 | 1014.2 |
| 20260906031523 | 14 | 84 | 0.0 | 0.0 | 0.00 | 0.00 | 0.00 | 19 | 1014.1 |
| 20260906030016 | 14 | 84 | 0.0 | 0.0 | 0.00 | 0.00 | 0.00 | 20 | 1014.2 |
| 20260906024511 | 14 | 84 | 0.0 | 0.0 | 0.00 | 0.00 | 0.00 | 23 | 1014.1 |
| 20260906023007 | 14 | 84 | 0.0 | 0.0 | 0.00 | 0.00 | 0.00 | 26 | 1013.9 |
| 20260906021503 | 15 | 85 | 0.0 | 0.0 | 0.00 | 0.00 | 0.00 | 26 | 1013.9 |
| 20260906020104 | 15 | 84 | 0.0 | 0.0 | 0.00 | 0.00 | 0.00 | 30 | 1014.0 |
| 20260906014554 | 15 | 84 | 0.0 | 0.0 | 0.00 | 0.00 | 0.00 | 33 | 1013.9 |
| 20260906013050 | 15 | 85 | 0.0 | 0.0 | 0.00 | 0.00 | 0.00 | 39 | 1013.8 |
| 20260906011547 | 16 | 85 | 0.0 | 0.0 | 0.00 | 0.00 | 0.00 | 50 | 1013.7 |
| 20260906010042 | 17 | 84 | 0.0 | 0.0 | 0.00 | 0.00 | 0.00 | 60 | 1013.6 |
| 20260906004537 | 17 | 84 | 0.0 | 0.0 | 0.00 | 0.00 | 0.00 | 63 | 1013.5 |
| 20260906003032 | 17 | 84 | 0.0 | 0.0 | 0.00 | 0.00 | 0.00 | 63 | 1013.3 |
| 20260906001529 | 18 | 84 | 0.0 | 0.0 | 0.00 | 0.00 | 0.00 | 63 | 1013.2 |
| 20260906000024 | 19 | 85 | 0.0 | 1.6 | 0.00 | 0.00 | 0.00 | 62 | 1013.1 |
| 20260905234519 | 20 | 100 | 0.0 | 3.2 | 0.00 | 0.00 | 0.00 | 59 | 1013.0 |
| 20260905233015 | 20 | 350 | 0.0 | 1.6 | 0.00 | 0.00 | 0.00 | 60 | 1013.1 |
| 20260905231511 | 20 | 352 | 0.0 | 1.6 | 0.00 | 0.00 | 0.00 | 61 | 1013.1 |
| 20260905230006 | 21 | 352 | 0.0 | 1.6 | 0.00 | 0.00 | 0.00 | 60 | 1013.1 |
| 20260905224504 | 21 | 224 | 0.0 | 1.6 | 0.00 | 0.00 | 0.00 | 58 | 1013.1 |
| 20260905223059 | 20 | 122 | 0.0 | 3.2 | 0.00 | 0.00 | 0.00 | 60 | 1013.2 |
| 20260905221601 | 20 | 304 | 0.0 | 4.8 | 0.00 | 0.00 | 0.00 | 62 | 1013.3 |
| 20260905214545 | 19 | 77 | 0.0 | 1.6 | 0.00 | 0.00 | 0.00 | 62 | 1013.6 |
| 20260905213040 | 18 | 77 | 0.0 | 0.0 | 0.00 | 0.00 | 0.00 | 63 | 1013.7 |
| 20260905211534 | 18 | 77 | 0.0 | 0.0 | 0.00 | 0.00 | 0.00 | 63 | 1014.0 |
| 20260905210031 | 19 | 78 | 0.0 | 1.6 | 0.00 | 0.00 | 0.00 | 62 | 1014.0 |
| 20260905204527 | 20 | 13 | 0.0 | 1.6 | 0.00 | 0.00 | 0.00 | 62 | 1014.0 |
| 20260905203023 | 19 | 345 | 0.0 | 1.6 | 0.00 | 0.00 | 0.00 | 62 | 1014.1 |
| 20260905201518 | 20 | 357 | 0.0 | 1.6 | 0.00 | 0.00 | 0.00 | 61 | 1014.0 |
| 20260905200013 | 20 | 338 | 0.0 | 1.6 | 0.00 | 0.00 | 0.00 | 62 | 1013.9 |